Terminal Aerodrome Forecast
Issued by NWS Quad Cities IA IL

Home | Current Version | Previous Version | Text Only | Print | Product List | Glossary On
Versions: 1 2 3 4 5 6 7 8 9 10 11 12 13 14 15 16
000
FTUS43 KDVN 282300 AAB
TAFDBQ
TAF AMD
KDBQ 282300Z 2823/2918 08011KT 6SM -RA OVC070
      TEMPO 2823/2901 2SM TSRA OVC040CB
     FM290100 14009KT 5SM -RA BR OVC035
     FM290800 17005KT 3SM -RA BR OVC025
     FM291200 VRB03KT 2SM BR SCT007 OVC015
     FM291600 VRB04KT 6SM BR BKN025=

USA.gov is the U.S. government's official web portal to all federal, state and local government web resources and services.